Flag for Estonia Weather past 2 weeks in Narva, Estonia

Now
57 °F

Sunny.


Feels Like: 57 °F
Forecast: 56 / 68 °F
Wind: 5 mph from Southwest

Location: Narva

Current Time: Aug 1, 2015 at 8:46:46 AM

Latest Report: Aug 1, 2015 at 8:00 AM


Visibility: 13 mi

Pressure: 29.83 "Hg

Humidity: 79%

Dew point: 50 °F

Location of NarvaLocation

Historic Weather in Narva — Graph

°F

Narva temperature yesterday

Maximum temperature yesterday: 63 °F (at 2:00 PM)
Minimum temperature yesterday: 50 °F (at 3:00 AM)
Average temperature yesterday: 58 °F

Past Weeks' High & Low Weather Summary

 TemperatureHumidityPressure
High77 °F (Jul 26, 4:00 PM)99% (Jul 17, 5:00 AM)29.98 "Hg (Jul 17, 5:00 AM)
Low44 °F (Jul 28, 3:00 AM)43% (Jul 25, 4:00 PM)29.50 "Hg (Jul 29, 7:00 AM)
Average61 °F80%29.70 "Hg
* Reported Jul 17 5:00 AM — Aug 1 5:00 AM, Narva, Weather by CustomWeather, © 2015

Note: Actual official high and low records may vary slightly from our data, if they occured in-between our weather recording intervals... More about our weather records

Advertising

Narva weather history for previous 24 hours

 ConditionsComfort  
Time TempWeatherWind HumidityBarometerVisibility
5:00 AM
Sat, Aug 1
53 °FOvercast.5 mph90%29.81 "Hg12 mi
4:00 AM57 °FPassing clouds.5 mph70%29.80 "Hg12 mi
3:00 AM57 °FPassing clouds.5 mph73%29.78 "Hg12 mi
2:00 AM58 °FOvercast.5 mph71%29.76 "Hg12 mi
1:00 AM59 °FOvercast.7 mph70%29.75 "Hg12 mi
12:00 AM58 °FOvercast.6 mph82%29.73 "Hg12 mi
11:00 PM
Fri, Jul 31
59 °FOvercast.7 mph84%29.72 "Hg12 mi
10:00 PM60 °FOvercast.8 mph81%29.70 "Hg12 mi
9:00 PM61 °FOvercast.7 mph83%29.68 "Hg12 mi
8:00 PM61 °FScattered clouds.7 mph83%29.67 "Hg12 mi
7:00 PM62 °FPartly sunny.6 mph81%29.65 "Hg12 mi
6:00 PM62 °FPartly sunny.5 mph85%29.65 "Hg12 mi
5:00 PM62 °FPartly sunny.3 mph84%29.63 "Hg12 mi
4:00 PM61 °FRain showers. Partly sunny.5 mph83%29.62 "Hg12 mi
3:00 PM58 °FRain. Overcast.5 mph90%29.61 "Hg4 mi
2:00 PM63 °FScattered clouds.5 mph79%29.59 "Hg12 mi
1:00 PM61 °FOvercast.5 mph83%29.58 "Hg12 mi
12:00 PM60 °FOvercast.7 mph87%29.57 "Hg12 mi
11:00 AM57 °FLight rain. Low clouds.5 mph94%29.57 "Hg12 mi
10:00 AM57 °FRain. Low clouds.6 mph94%29.56 "Hg11 mi
9:00 AM56 °FRain. Low clouds.3 mph94%29.57 "Hg9 mi
8:00 AM57 °FPartly sunny.5 mph92%29.56 "Hg12 mi
Weather by CustomWeather, © 2015

See weather overviewHow to use our weather pages